Theta_e
297 296 296 295 295 295 295 295 295 294 294 294 293 293 293 293 294 294 294 294 293 292 291 291 291 291 291 290 291 291 291 291 292 292 293 293 292 293 292 293 294 294
295 295 295 294 294 294 294 294 294 293 293 293 293 292 292 292 292 293 293 293 293 292 291 290 290 289 289 289 289 288 288 289 290 291 290 290 291 291 291 291 291 293
294 294 293 293 293 292 292 293 293 292 292 292 292 292 291 291 290 290 290 291 291 292 291 290 289 289 289 289 288 287 287 287 288 289 289 288 289 289 289 289 289 290
292 293 292 292 292 291 292 291 291 291 291 290 290 291 290 291 290 289 289 289 289 289 289 289 289 288 288 288 288 286 286 286 286 288 287 287 287 287 287 287 287 287
291 291 291 291 291 291 290 290 289 289 289 289 289 289 289 289 288 288 288 287 288 287 288 288 288 288 288 287 287 285 285 284 285 286 286 286 286 286 286 286 286 286
290 290 290 290 289 289 288 288 288 288 287 287 287 287 287 288 287 287 287 287 287 287 286 286 287 287 287 287 286 285 284 284 284 284 284 284 285 285 285 285 285 285
288 288 288 288 288 288 287 287 286 286 286 286 286 286 286 286 286 286 286 286 286 286 285 285 285 286 286 287 286 284 283 283 283 283 283 284 284 284 284 284 284 283
287 288 287 287 286 286 286 286 285 285 285 285 284 284 285 285 285 285 285 285 285 285 285 285 285 285 285 286 284 283 282 283 283 282 283 283 283 282 283 283 282 281
286 286 286 286 285 285 284 284 284 284 285 284 283 283 284 284 284 284 284 284 284 284 285 284 284 284 285 284 284 282 281 281 282 282 282 281 281 281 281 281 280 280
285 285 285 285 284 284 284 284 283 283 283 283 283 283 282 283 283 283 283 283 283 283 284 284 284 284 284 284 283 282 281 281 281 281 281 281 281 280 279 279 279 279
284 284 284 284 283 283 283 283 283 283 282 282 282 282 282 282 282 282 282 282 282 283 283 283 283 283 283 283 283 282 281 280 280 281 280 280 280 279 278 278 278 278
284 284 283 283 283 283 282 282 282 282 281 281 281 281 281 281 281 281 281 281 281 282 283 283 283 283 283 283 283 282 281 280 280 280 280 280 279 278 278 278 277 278
284 283 283 282 282 282 282 282 281 281 280 280 280 280 280 279 279 279 280 280 280 281 282 282 282 283 283 283 282 282 280 279 279 280 280 279 278 277 277 278 277 278
283 283 283 282 282 281 281 281 280 280 279 279 279 279 279 278 278 278 279 279 279 280 281 282 282 282 282 282 281 281 279 278 278 278 278 277 277 277 277 277 277 277
282 282 282 281 281 280 280 280 279 279 279 279 278 278 278 278 278 278 277 277 278 279 280 281 281 280 280 280 280 280 279 277 277 277 277 276 276 276 276 276 275 276
281 280 280 280 280 279 279 279 279 278 278 278 277 278 277 277 277 277 277 277 277 278 279 280 280 279 280 280 279 279 278 277 277 277 276 275 275 275 275 274 274 275
279 279 279 279 279 278 278 278 278 278 277 277 276 277 276 276 276 276 276 276 276 277 278 279 278 278 279 279 278 277 276 276 276 275 275 275 275 274 273 273 273 273
278 278 278 278 278 277 277 277 277 277 276 276 275 275 276 276 275 275 275 275 276 276 277 277 277 278 277 277 278 276 275 275 275 275 275 274 273 273 272 272 272 272
278 277 277 277 277 276 276 276 276 276 275 275 275 275 275 275 275 275 274 275 275 275 276 276 276 277 277 277 277 276 275 275 275 275 274 273 272 272 272 271 272 271
277 277 276 276 276 276 276 275 275 275 275 275 275 275 274 274 274 273 273 273 273 274 275 275 275 275 276 277 276 275 274 274 274 273 273 272 271 271 271 271 271 270
276 276 276 275 275 275 275 275 274 274 274 274 274 274 274 273 273 273 272 272 272 273 274 274 273 274 275 276 275 274 273 273 273 272 272 272 271 270 270 270 270 270
276 275 275 275 274 274 274 274 274 274 273 273 273 273 273 273 273 272 272 271 272 272 272 272 273 273 274 274 274 273 272 272 272 271 271 271 270 270 270 270 271 270
275 275 274 274 274 273 273 273 272 272 272 273 272 272 272 272 272 271 270 270 271 271 271 271 271 272 273 273 273 273 271 272 271 271 270 270 269 269 270 270 270 269
275 274 274 273 273 273 272 272 272 272 272 272 271 271 271 271 270 270 270 270 270 270 270 270 269 270 271 272 273 273 271 270 270 270 269 269 268 269 270 269 269 267
274 274 273 273 272 272 272 271 271 271 271 271 271 271 270 270 270 269 269 269 269 269 270 268 268 268 270 271 271 272 271 270 270 269 268 268 268 268 269 269 268 268
273 273 273 272 272 271 271 271 271 270 270 270 270 270 269 269 268 268 267 268 268 268 268 267 266 267 269 269 270 271 271 270 270 268 268 267 267 268 267 268 268 267
Wind_Speed
6 6 6 6 6 6 6 7 7 7 7 6 6 6 7 6 7 8 8 9 9 9 9 9 9 9 8 9 8 8 8 9 8 8 9 8 8 9 9 10 9 7
7 7 6 6 6 6 6 7 7 7 7 6 6 6 7 7 7 7 8 8 9 9 9 9 9 9 9 8 8 8 8 8 9 6 8 10 7 8 9 9 9 7
7 7 6 7 7 9 8 8 7 6 6 7 7 7 7 7 7 8 8 7 8 8 8 8 8 9 9 8 8 8 8 9 8 8 8 9 8 8 8 8 8 8
7 7 7 7 7 8 8 8 7 6 6 6 6 6 6 6 7 8 8 9 8 8 8 8 8 8 9 9 8 8 8 8 8 7 7 7 8 8 8 7 8 8
7 7 7 7 7 8 7 7 7 6 7 6 6 6 6 7 7 7 7 8 8 7 7 8 8 8 8 8 8 8 8 7 8 8 7 8 8 8 7 7 8 9
7 7 7 7 7 8 7 7 7 7 7 7 6 6 7 7 8 8 8 8 7 7 7 8 8 8 8 8 8 8 8 7 8 8 8 8 8 8 6 8 8 9
8 8 8 8 8 8 8 8 7 6 6 6 5 6 7 8 8 8 8 8 8 8 8 8 9 8 8 7 8 9 8 8 8 8 9 7 8 9 8 8 8 9
8 8 8 7 9 8 8 7 7 6 6 6 7 7 7 8 9 7 7 7 8 8 8 8 9 9 8 8 8 8 8 6 7 8 8 8 8 9 9 8 8 9
8 8 8 9 9 8 8 8 6 6 5 6 7 7 7 7 7 7 7 7 8 8 8 8 8 8 8 8 8 9 9 8 8 8 8 8 9 9 9 9 9 9
9 9 9 9 9 8 9 7 6 6 5 6 6 6 7 7 8 7 7 8 8 8 8 8 8 8 7 7 8 8 8 8 7 8 7 8 8 8 9 8 9 8
10 9 9 9 9 8 9 8 7 6 5 6 6 7 7 8 7 7 7 7 7 7 8 8 7 7 7 7 7 7 7 6 6 6 7 7 7 8 8 8 8 8
10 9 10 10 9 9 8 7 6 6 6 6 6 8 8 7 7 6 6 7 7 7 7 7 7 6 6 6 6 6 6 6 5 5 6 7 7 7 8 8 8 8
9 9 9 9 8 8 7 7 7 7 7 7 6 7 8 7 6 6 6 6 6 6 7 7 7 6 6 6 6 5 6 6 6 6 6 6 7 7 7 7 8 8
9 9 9 9 8 8 7 7 7 7 7 6 6 7 7 7 6 6 6 6 6 6 6 7 7 7 7 6 5 5 5 6 5 5 6 6 6 7 7 7 7 8
9 8 8 8 8 8 8 7 7 7 7 6 6 7 6 6 5 6 7 7 7 6 6 7 8 7 6 5 4 4 5 5 5 6 6 5 5 6 6 7 7 6
8 8 8 8 8 8 7 7 7 7 7 7 7 6 6 5 5 5 6 7 7 7 7 8 7 6 8 11 7 4 4 4 4 5 5 5 5 5 5 6 6 6
8 8 8 8 7 7 7 7 7 6 6 7 7 6 6 5 4 5 5 6 6 6 8 7 6 7 11 9 9 8 5 4 4 4 5 5 5 5 5 5 5 6
8 9 8 8 7 7 7 6 6 6 6 6 6 6 5 5 5 4 5 5 5 6 8 7 7 9 10 8 8 8 5 3 4 4 4 4 5 5 4 4 4 5
9 9 9 8 7 7 6 6 6 6 6 6 6 5 5 5 4 4 4 5 6 7 7 8 7 9 9 8 8 8 6 3 4 4 4 4 4 4 4 4 4 4
10 9 9 8 8 7 7 7 6 6 6 5 5 5 5 5 5 5 4 5 5 6 7 8 7 9 9 9 9 8 6 4 4 4 4 4 4 4 3 3 4 3
10 9 9 9 8 8 7 7 7 6 6 5 5 5 5 5 4 4 4 4 4 5 6 7 6 9 9 9 8 7 6 4 4 3 3 3 3 3 2 2 2 3
10 10 9 9 9 8 8 8 7 6 6 6 5 5 4 4 4 4 4 4 4 5 6 7 7 10 9 9 8 6 4 2 3 2 3 3 3 2 1 2 2 3
9 9 9 9 9 8 8 7 7 7 6 5 5 5 5 4 4 4 4 4 4 4 5 6 6 8 9 8 8 5 3 2 2 2 2 2 2 1 1 1 2 3
9 9 8 8 8 8 8 7 6 5 5 4 5 5 5 4 3 4 4 4 3 4 4 5 5 7 8 7 7 6 3 2 1 2 2 2 1 1 1 1 3 4
9 8 8 7 7 7 7 7 6 5 5 4 4 4 4 4 3 3 3 3 3 4 5 5 4 5 7 6 6 5 2 1 1 1 2 1 1 1 1 2 2 2
8 8 7 7 7 7 7 6 5 5 5 4 4 3 3 3 2 3 2 3 3 3 4 4 3 2 4 5 5 4 3 2 0 1 1 1 1 1 2 1 1 1
Wind_Direction
102 102 101 97 97 100 103 101 93 92 88 86 87 83 76 72 66 65 63 60 57 56 53 50 45 47 47 45 45 49 50 48 48 43 42 44 47 40 37 32 31 33
96 97 102 104 104 103 99 96 95 95 96 94 95 93 83 79 70 68 67 66 62 60 56 52 48 46 45 46 43 47 46 44 49 38 44 41 41 41 40 35 33 28
102 104 108 110 110 107 102 97 96 98 98 99 97 91 90 80 76 71 67 64 64 60 58 57 54 48 46 45 44 47 44 39 40 37 41 40 35 36 35 33 33 29
104 105 108 109 109 106 103 103 104 105 107 100 92 94 92 89 85 79 74 67 65 61 58 56 54 53 50 48 48 48 44 41 32 31 41 42 35 33 31 31 32 30
114 112 112 110 106 104 104 104 104 103 100 101 101 98 96 95 90 82 76 73 68 64 59 59 56 55 52 52 50 49 42 42 32 30 37 39 34 30 26 28 31 32
115 116 116 113 112 112 108 104 102 102 104 101 98 97 95 92 88 82 79 78 72 68 65 60 58 55 53 52 51 49 42 38 33 33 38 40 37 33 28 26 29 30
123 122 117 114 111 109 105 103 102 100 98 100 100 94 94 89 86 84 81 80 77 71 64 61 58 55 51 51 53 50 44 38 34 35 38 39 37 35 33 29 28 28
128 125 120 116 113 107 104 105 104 101 106 108 99 92 89 88 88 87 85 83 81 74 69 64 61 59 54 54 53 50 45 38 34 35 38 38 36 35 31 28 23 24
130 126 124 120 114 109 108 108 106 110 114 111 103 97 88 87 90 91 89 86 82 75 70 65 62 60 59 58 57 52 46 42 38 36 37 36 36 34 29 23 22 23
132 130 127 123 116 113 116 116 116 116 115 109 104 101 97 90 90 89 88 86 82 79 74 71 67 66 65 63 63 58 52 47 43 44 42 40 40 37 31 26 23 23
136 134 129 123 118 120 121 120 121 120 113 108 109 105 99 96 89 86 87 87 87 87 84 79 75 72 71 71 72 66 60 56 53 52 49 47 43 41 34 30 26 27
139 135 128 124 124 125 125 123 123 120 114 107 107 105 98 94 93 93 94 95 95 92 89 86 80 77 75 77 77 75 63 58 58 56 56 51 43 39 35 32 29 26
142 137 131 130 131 130 127 126 124 121 116 113 110 105 103 102 101 104 102 99 95 93 90 86 81 74 70 66 70 75 65 54 53 54 56 52 41 41 38 33 32 29
142 135 132 132 131 130 129 127 126 121 115 114 112 106 104 109 116 114 108 99 92 89 88 83 76 68 59 56 58 69 66 52 52 53 55 52 48 46 41 37 35 33
138 130 129 130 131 131 131 130 126 121 119 117 112 106 104 108 114 114 109 102 93 88 88 84 75 62 47 37 50 66 73 55 56 57 53 53 50 51 47 40 34 32
133 129 130 132 133 134 133 132 128 124 119 115 111 106 106 107 105 102 102 102 100 93 91 85 74 66 62 57 52 62 67 60 67 69 59 55 52 49 42 38 33 30
135 134 135 137 137 134 135 133 127 123 117 112 108 107 109 107 106 104 101 99 99 97 94 85 77 74 67 57 63 64 60 60 73 72 70 62 55 46 37 27 27 25
142 140 140 139 139 137 135 132 128 125 122 117 115 114 111 109 104 101 103 105 105 102 98 88 81 70 57 57 70 72 61 68 79 80 74 69 55 42 42 26 26 24
147 145 143 142 140 137 134 132 130 128 124 122 118 114 114 113 112 110 107 108 110 110 102 89 80 61 53 60 75 75 78 83 85 89 83 73 64 52 47 33 25 20
150 148 146 142 140 138 137 137 135 133 127 123 123 125 122 120 122 116 110 108 109 113 104 90 75 54 52 61 74 75 79 87 87 82 81 86 77 55 50 46 31 24
151 149 145 142 142 141 142 141 139 134 134 133 135 137 138 136 137 126 113 106 110 114 108 93 72 54 51 55 62 73 72 91 83 78 102 94 85 64 64 66 45 43
151 148 145 145 146 146 146 144 141 140 138 137 137 133 133 135 134 126 117 113 114 119 119 101 75 55 50 49 54 77 76 92 91 98 103 102 76 69 73 68 73 42
149 146 147 149 150 147 145 143 140 139 139 145 145 143 144 141 135 122 116 113 116 121 123 112 86 53 46 45 45 75 79 92 117 99 123 110 69 61 148 121 103 51
145 147 148 150 150 147 142 138 137 135 140 144 146 142 136 131 131 126 122 109 106 112 118 117 88 55 45 34 36 56 93 116 124 116 119 130 119 292 179 168 119 91
140 143 147 147 143 140 139 140 141 139 132 131 130 128 126 125 135 124 123 115 106 101 100 104 85 62 44 26 28 39 89 134 138 128 144 97 142 240 253 166 177 144
133 137 140 142 141 137 136 134 130 134 135 130 130 126 125 114 105 102 105 107 114 117 109 98 80 56 50 19 12 23 54 117 55 109 137 121 289 240 224 273 188 200